Content
SEND FEEDBACK

Daily
Averages
Monthly
Summary
United States of America

BISON, OKLAHOMA


Home > North America > United States > Oklahoma
Elevation: 985 feet     Latitude: 36 09N     Longitude: 097 05W

WEATHER
 
SELECT A DAY
Number of Records: 176,865;   Date Range: 3/22/95 - 10/24/14
 
SHARE

PRINT THIS DATA

[ ← Previous Day ]
WEATHER ALMANAC - FEBRUARY 5, 2013
[ Next Day → ]
[ °C ]   °F
Weather ElementAverageHighLow
Temperature46.1 °F69.1 °F (3:53 pm)28 °F (7:53 am)
Dewpoint30.2 °F37 °F (10:53 am)25 °F (7:53 am)
Humidity60 %92 % (6:53 am)22 % (3:53 pm)
Barometer29.99 in30.04 in (10:53 am)29.92 in (3:53 am)
Wind Speed2 mph6.9 mph (4:53 pm)
Weather ElementAverage
Visibility10 mi
Wind DirectionNNE (24.8 °)

Weather ElementTotal
Precipitation---
Heating Degree Days16.5 (Base 65)
Averaged from 23 records on February 5, 2013
WEATHER CONDITIONS BREAKOUT
WIND DIRECTION BREAKOUT
WEATHER BY HOUR - FEBRUARY 5, 2013
[ °C ]   °F
Local TimeTemperatureDewpointHumidityBarometerVisibilityWind DirectionWind SpeedGust SpeedPrecipitationEventsConditions
1:53 AM34.0 °F28.9 °F82 %29.94 in10.0 miCalmClear
2:53 AM32.0 °F28.9 °F88 %29.94 in10.0 miCalmClear
3:53 AM30.0 °F27.0 °F88 %29.92 in10.0 miCalmClear
4:53 AM30.0 °F26.1 °F85 %29.94 in10.0 miCalmClear
5:53 AM30.0 °F26.1 °F85 %29.96 in10.0 miCalmClear
6:53 AM28.9 °F27.0 °F92 %29.98 in10.0 miCalmClear
7:53 AM28.0 °F25.0 °F88 %30.00 in10.0 miCalmClear
8:53 AM39.0 °F34.0 °F82 %30.01 in10.0 miCalmClear
9:53 AM46.9 °F34.0 °F61 %30.03 in10.0 miVariable3.5 mphClear
10:53 AM52.0 °F37.0 °F57 %30.04 in10.0 miVariable3.5 mphClear
11:53 AM60.1 °F37.0 °F42 %30.04 in10.0 miVariable3.5 mphClear
12:53 PM61.0 °F35.1 °F38 %30.01 in10.0 miCalmClear
1:53 PM64.9 °F32.0 °F29 %29.99 in10.0 miNW (310°)4.6 mphClear
2:53 PM66.0 °F28.0 °F24 %29.99 in10.0 miCalmClear
3:53 PM69.1 °F28.0 °F22 %29.99 in10.0 miCalmClear
4:53 PM66.9 °F28.0 °F23 %29.98 in10.0 miNorth (10°)6.9 mphClear
5:53 PM59.0 °F28.9 °F32 %29.99 in10.0 miNE (40°)5.8 mphClear
6:53 PM52.0 °F30.9 °F45 %30.00 in10.0 miNE (50°)6.9 mphClear
7:53 PM50.0 °F30.9 °F48 %30.01 in10.0 miENE (60°)6.9 mphClear
8:53 PM43.0 °F30.9 °F62 %30.02 in10.0 miCalmClear
9:53 PM42.1 °F30.0 °F62 %30.03 in10.0 miCalmClear
10:53 PM39.0 °F30.0 °F70 %30.03 in10.0 miEast (100°)3.5 mphClear
11:53 PM37.0 °F30.0 °F76 %30.03 in10.0 miCalmClear
Hourly data recorded from KSWO, located miles away from Bison, Oklahoma







STORIES FROM OUR PARTNERS